Location: Maccacari
(45.1333°N, 11.1333°E)
Time: 08:03:20
(UTC+00:00)

CSL-04 Rocket - Pass Details

Date: 18 September 2020
Orbit: 806 x 860 km, 98.9° (Epoch: 29 October)

Event Time Altitude Azimuth Distance (km) Brightness Sun altitude
Rises 18:24:55 0° 172° (S) 3,350 6.6 -12.1°
Reaches altitude 10° 18:27:16 10° 175° (S) 2,429 5.9 -12.5°
Maximum altitude 18:32:37 66° 258° (WSW) 917 4.1 -13.4°
Drops below altitude 10° 18:38:05 10° 340° (NNW) 2,481 6.6 -14.4°
Sets 18:40:30 0° 344° (NNW) 3,428 7.4 -14.8°
